Flag for Germany Weather past 2 weeks in Ilmenau, Thuringia, Germany

Now
54 °F

Partly sunny.


Feels Like: 53 °F
Forecast: 41 / 53 °F
Wind: 5 mph from North

Location: Erfurt-Bindersleben

Current Time: May 26, 2015 at 2:25:22 PM

Latest Report: May 26, 2015 at 1:50 PM


Visibility: N/A

Pressure: 30.07 "Hg

Humidity: 54%

Dew point: 37 °F

Location of IlmenauLocation

Historic Weather in Ilmenau — Graph

°F

Ilmenau temperature yesterday

Maximum temperature yesterday: 63 °F (at 12:20 PM)
Minimum temperature yesterday: 52 °F (at 10:20 PM)
Average temperature yesterday: 57 °F

Past Weeks' High & Low Weather Summary

 TemperatureHumidityPressure
High81 °F (May 12, 2:50 PM)100% (May 21, 6:20 AM)30.33 "Hg (May 21, 6:20 AM)
Low36 °F (May 22, 2:20 AM)27% (May 19, 2:50 PM)29.65 "Hg (May 19, 1:20 AM)
Average55 °F62%30.04 "Hg
* Reported May 11 1:20 PM — May 26 1:20 PM, Ilmenau, Weather by CustomWeather, © 2015

Note: Actual official high and low records may vary slightly from our data, if they occured in-between our weather recording intervals... More about our weather records

Advertising

Ilmenau weather history for previous 24 hours

 ConditionsComfort  
Time TempWeatherWind HumidityBarometerVisibility
1:20 PM
Tue, May 26
52 °FBroken clouds.5 mph67%30.07 "HgN/A
12:50 PM48 °FSprinkles. Partly sunny.7 mph76%30.07 "HgN/A
12:20 PM48 °FSprinkles. Broken clouds.13 mph76%30.07 "HgN/A
11:50 AM52 °FSprinkles. Broken clouds.5 mph67%30.04 "HgN/A
11:20 AM52 °FBroken clouds.3 mph62%30.04 "HgN/A
10:50 AM50 °FPartly sunny.7 mph71%30.04 "HgN/A
10:20 AM50 °FPartly sunny.8 mph71%30.04 "HgN/A
9:50 AM48 °FPartly sunny.8 mph76%30.04 "HgN/A
9:20 AM50 °FPartly sunny.7 mph67%30.04 "HgN/A
8:50 AM48 °FPartly sunny.7 mph76%30.01 "HgN/A
8:20 AM48 °FPartly sunny.7 mph76%30.01 "HgN/A
7:50 AM48 °FPartly sunny.8 mph76%30.01 "HgN/A
7:20 AM48 °FPartly sunny.6 mph76%30.01 "HgN/A
6:50 AM46 °FSunny.2 mph87%29.98 "Hg10 mi
6:20 AM46 °FSunny.3 mph82%29.98 "Hg10 mi
5:50 AM46 °FClear.5 mph82%29.98 "Hg10 mi
5:20 AM46 °FClear.3 mph82%29.98 "Hg10 mi
4:50 AM46 °FClear.5 mph82%29.98 "Hg10 mi
4:20 AM46 °FClear.5 mph82%29.98 "Hg10 mi
3:50 AM45 °FClear.6 mph87%29.95 "Hg10 mi
3:20 AM46 °FClear.5 mph87%29.95 "Hg10 mi
2:50 AM48 °FClear.6 mph87%29.95 "Hg10 mi
2:20 AM48 °FClear.7 mph87%29.95 "Hg10 mi
1:50 AM48 °FClear.7 mph87%29.95 "Hg10 mi
1:20 AM50 °FPartly cloudy.8 mph88%29.95 "HgN/A
12:50 AM52 °FPassing clouds.7 mph82%29.95 "HgN/A
12:20 AM52 °FPassing clouds.7 mph82%29.95 "HgN/A
11:20 PM
Mon, May 25
52 °FPassing clouds.10 mph82%29.95 "HgN/A
10:20 PM52 °FPassing clouds.7 mph82%29.95 "HgN/A
9:50 PM54 °FPartly sunny.7 mph77%29.95 "HgN/A
9:20 PM54 °FPartly sunny.9 mph82%29.92 "HgN/A
8:50 PM54 °FPartly sunny.8 mph82%29.92 "HgN/A
8:20 PM54 °FBroken clouds.8 mph88%29.92 "HgN/A
7:50 PM54 °FBroken clouds.8 mph88%29.92 "HgN/A
7:20 PM55 °FLight rain. Mostly cloudy.10 mph82%29.92 "HgN/A
6:50 PM57 °FLight rain. Mostly cloudy.8 mph77%29.89 "HgN/A
6:20 PM59 °FMore clouds than sun.10 mph72%29.89 "HgN/A
5:50 PM61 °FOvercast.5 mph63%29.89 "HgN/A
5:20 PM61 °FBroken clouds.1 mph63%29.89 "HgN/A
4:50 PM59 °FLight rain. Broken clouds.3 mph68%29.92 "HgN/A
4:20 PM59 °FLight rain. Broken clouds.7 mph68%29.92 "HgN/A
3:50 PM59 °FLight rain. Broken clouds.8 mph68%29.92 "HgN/A
3:20 PM59 °FLight rain. Partly sunny.10 mph68%29.92 "HgN/A
2:50 PM63 °FBroken clouds.6 mph52%29.92 "HgN/A
2:20 PM61 °FBroken clouds.6 mph55%29.92 "HgN/A
Weather by CustomWeather, © 2015

See weather overviewHow to use our weather pages